User: anonymous   Login
Location: Wells
(51.2093°N, 2.6446°W)
Time: 22:45:44
(UTC+00:00)
Language:

KKS-1 - Orbit

View from above orbital plane
View from above orbital plane
View from above satellite
View from above satellite

Ground track
Ground track

The orbit is defined by the following mean orbital elements,

1 33499U          26073.59327725 +.00000000 +00000-0 +25189-3 0 00007
2 33499  98.1185 354.5631 0006640 231.5954 128.4663 14.82850996    06
Epoch (UTC): 14 March 2026 14:14:19
Eccentricity: 0.0006640
inclination: 98.1185°
perigee height: 616 km
apogee height: 625 km
right ascension of ascending node: 354.5631°
argument of perigee: 231.5954°
revolutions per day: 14.82850996
mean anomaly at epoch: 128.4663°

The dashed part of the orbit path shows where the satellite is in the earth's shadow,  

DLR